[[{"header":{"parameterUnit":"m.s-1","parameterCategory":1,"la1":30.2991,"la2":30.254,"lo1":-89.0895,"lo2":-89.0444,"dy":0.0017,"dx":0.0017,"nx":28,"ny":28,"refTime":"2024-07-20T03:00:00:Z","depth":0,"parameterNumber":2,"parameterNumberName":"U-component_of_WINDS"},"data":[0,0,0,0,0,0,0,0,0,0,0,0,0,0,0,0,0,0,0,0,0,0,0,0,0,0,0,0,0,0,0,0,0,0,0,0,0,0,0,0,0,0,0,0,0,0,0,0,0,0,0,0,0,0,0,0,0,0,0.2089,0.2089,0,0.2073,0.2073,0.2073,0.2062,0.2062,0.2061,0.2061,0.2045,0.2045,0.2045,0,0,0,0,0,0,0,0,0,0,0,0,0,0.2109,0.2108,0.2089,0.2089,0.2089,0.2073,0.2073,0.2073,0.2062,0.2062,0.2061,0.2061,0.2045,0.2045,0.2045,0,0,0,0,0,0,0,0,0,0,0,0,0,0.2097,0.2108,0.2089,0.2081,0.208,0.2074,0.2073,0.2073,0.2062,0.2062,0.2061,0.2061,0.2046,0.2045,0.2045,0.2044,0,0,0.2043,0.2043,0,0,0,0,0,0,0,0,0.2098,0.2097,0.2083,0.2082,0.2081,0.2069,0.2074,0.2063,0.2062,0.2069,0.2061,0.2061,0.2053,0.2052,0.205,0.2044,0.2043,0.2043,0.2043,0.2042,0.2042,0,0,0,0,0,0,0,0.2099,0.2097,0.2083,0.2082,0.2081,0.2078,0.2076,0.2072,0.2062,0.2068,0.2067,0.2066,0.2053,0.205,0.2049,0.2043,0.2043,0.2043,0.2042,0.2042,0.2035,0.2035,0,0,0,0,0,0,0.2101,0.2098,0.2083,0.2082,0.2089,0.2078,0.2076,0.2073,0.2062,0.206,0.2066,0.2065,0.2051,0.205,0.2049,0.2047,0.2042,0.2042,0.2042,0.2035,0.2035,0.2035,0,0,0,0,0,0,0.2101,0.21,0.2084,0.209,0.2088,0.2078,0.2075,0.2073,0.207,0.206,0.2058,0.2065,0.2051,0.2049,0.2045,0.2047,0.2042,0.2041,0.2035,0.2035,0.2035,0.2045,0,0,0,0,0,0,0.2102,0.21,0.21,0.209,0.2087,0.2081,0.2075,0.2073,0.2069,0.2068,0.2059,0.2057,0.2051,0.2046,0.2045,0.2046,0.2041,0.2035,0.2035,0.2035,0.2044,0.2045,0.2046,0,0,0,0,0,0.2103,0.2103,0.21,0.2098,0.2087,0.2081,0.208,0.2072,0.207,0.2069,0.2063,0.2058,0.2047,0.2046,0.2044,0.2045,0.2035,0.2035,0.2035,0.2044,0.2045,0.2046,0,0,0,0,0,0,0.2114,0.2102,0.2098,0.2096,0.209,0.2079,0.2079,0.2074,0.2069,0.2068,0.2059,0.2057,0.2054,0.2049,0.2048,0.2044,0.204,0.204,0.2047,0.2048,0.2049,0.205,0.2041,0,0,0,0,0,0.2116,0.2112,0.2102,0.2101,0.2098,0.2089,0.2086,0.2081,0.2074,0.2072,0.2065,0.2059,0.2054,0.2051,0.2046,0.2044,0.2041,0.2043,0.2044,0.2045,0.2045,0.2043,0.2044,0.2036,0.2036,0.2036,0,0,0.212,0.2113,0.2112,0.2103,0.2098,0.2094,0.2087,0.2083,0.208,0.2071,0.2067,0.2062,0.2054,0.2051,0.2049,0.2047,0.2046,0.2045,0.2046,0.2046,0.2043,0.2044,0.2045,0.2036,0.2036,0.2036,0,0,0.2127,0.2121,0.2119,0.2114,0.2106,0.21,0.2099,0.209,0.2086,0.2082,0.2074,0.2071,0.2062,0.2057,0.2053,0.2057,0.2051,0.2055,0.206,0.2058,0.2059,0.2059,0.206,0.206,0.2055,0.2055,0.2055,0,0.2133,0.2127,0.2119,0.2116,0.2112,0.2103,0.2101,0.2096,0.2087,0.2084,0.2082,0.2071,0.2065,0.206,0.2061,0.2059,0.2057,0.2056,0.2059,0.206,0.206,0.2061,0.2061,0.2056,0.2056,0.2056,0.2056,0,0.2136,0.2131,0.2131,0.2122,0.2118,0.2116,0.2107,0.2104,0.2098,0.2092,0.2088,0.208,0.2073,0.2072,0.2067,0.2066,0.2065,0.2061,0.2057,0.2061,0.2062,0.2062,0.2057,0.2056,0.2056,0.2056,0,0,0.2149,0.2135,0.2135,0.213,0.2121,0.2117,0.2114,0.2107,0.2104,0.2098,0.2095,0.2088,0.2084,0.208,0.2074,0.2072,0.2075,0.2068,0.2068,0.2069,0.2073,0.2076,0.2076,0.2071,0.2071,0.2071,0.2073,0,0.2153,0.2147,0.2139,0.2135,0.2131,0.2122,0.2119,0.2113,0.2107,0.2103,0.2096,0.2091,0.2087,0.2084,0.2082,0.2075,0.2075,0.2075,0.2068,0.2067,0.207,0.2077,0.208,0.2082,0.2073,0.2073,0.2074,0,0.2158,0.2152,0.2147,0.2137,0.2135,0.2133,0.2126,0.2122,0.2114,0.211,0.2104,0.2098,0.2094,0.209,0.2083,0.2083,0.208,0.2076,0.2076,0.2075,0.2071,0.2076,0.2083,0.2083,0.2074,0.2074,0.2074,0,0.2167,0.2158,0.2154,0.2151,0.2139,0.2138,0.2133,0.2125,0.2121,0.2114,0.2112,0.2105,0.2101,0.2096,0.2087,0.2086,0.2082,0.2077,0.2078,0.2078,0.2078,0.2078,0.2084,0.2076,0.2076,0.2076,0.2076,0,0.2173,0.2171,0.2158,0.2156,0.2153,0.2144,0.2141,0.2135,0.2128,0.2124,0.2116,0.2113,0.2102,0.2097,0.2091,0.2086,0.2085,0.2081,0.2079,0.2082,0.2082,0.2079,0.2079,0.2076,0.2076,0.2076,0.2076,0,0.2183,0.2175,0.217,0.2159,0.2157,0.2155,0.2145,0.2143,0.2136,0.2131,0.213,0.2119,0.2113,0.2104,0.2095,0.2091,0.2087,0.2085,0.209,0.2089,0.209,0.209,0.2095,0.2095,0.2086,0.2086,0.2087,0,0.2187,0.2185,0.2174,0.2171,0.2166,0.2162,0.2157,0.2148,0.2144,0.2135,0.2133,0.2126,0.212,0.211,0.2102,0.2095,0.2092,0.2094,0.2091,0.2093,0.2092,0.2092,0.2091,0.2095,0.2095,0.2095,0.2095,0,0.2196,0.2191,0.2186,0.2179,0.2174,0.2168,0.2162,0.216,0.2149,0.2145,0.2138,0.2134,0.2124,0.2117,0.2109,0.2104,0.2098,0.2096,0.2096,0.2099,0.2102,0.21,0.2092,0.2096,0.2096,0.2096,0.2096,0.2096,0.2203,0.22,0.2192,0.2186,0.218,0.2174,0.2171,0.2164,0.2158,0.215,0.2145,0.2139,0.213,0.2118,0.2113,0.2108,0.2105,0.2105,0.2105,0.2105,0.2105,0.2102,0.2106,0.2106,0.2106,0.2106,0.2106,0,0.221,0.2204,0.2199,0.219,0.2185,0.218,0.2173,0.2169,0.2163,0.2156,0.215,0.2142,0.2135,0.2126,0.2119,0.2116,0.2113,0.2114,0.2114,0.2113,0.2108,0.2109,0.2117,0.2117,0.2117,0.2117,0.2117,0.2117,0.2214,0.2209,0.2204,0.2196,0.219,0.2184,0.218,0.2175,0.2169,0.216,0.2155,0.2149,0.214,0.2132,0.2125,0.2122,0.212,0.2122,0.2119,0.2114,0.2113,0.2112,0.2113,0.2122,0.2122,0.2124,0.2124,0.2124]},{"header":{"parameterUnit":"m.s-1","parameterCategory":1,"la1":30.2991,"la2":30.254,"lo1":-89.0895,"lo2":-89.0444,"dy":0.0017,"dx":0.0017,"nx":28,"ny":28,"refTime":"2024-07-20T03:00:00:Z","depth":0,"parameterNumber":3,"parameterNumberName":"V-component_of_WINDS"},"data":[0,0,0,0,0,0,0,0,0,0,0,0,0,0,0,0,0,0,0,0,0,0,0,0,0,0,0,0,0,0,0,0,0,0,0,0,0,0,0,0,0,0,0,0,0,0,0,0,0,0,0,0,0,0,0,0,0,0,4.9368,4.9367,0,4.9346,4.9346,4.9346,4.9336,4.9336,4.9336,4.9336,4.931,4.9309,4.9308,0,0,0,0,0,0,0,0,0,0,0,0,0,4.9397,4.9396,4.9368,4.9367,4.9367,4.9346,4.9346,4.9346,4.9336,4.9336,4.9336,4.9336,4.931,4.9309,4.9308,0,0,0,0,0,0,0,0,0,0,0,0,0,4.9381,4.9396,4.9368,4.936,4.9359,4.9346,4.9346,4.9345,4.9336,4.9336,4.9336,4.9336,4.931,4.9309,4.9308,4.9301,0,0,4.9305,4.9305,0,0,0,0,0,0,0,0,4.9382,4.938,4.9361,4.936,4.9359,4.9344,4.9347,4.933,4.9336,4.9344,4.9336,4.9336,4.9321,4.9319,4.9315,4.93,4.9299,4.9305,4.9304,4.9304,4.9304,0,0,0,0,0,0,0,4.9383,4.938,4.9359,4.9361,4.936,4.9356,4.9354,4.9344,4.9332,4.9343,4.9343,4.9341,4.932,4.9316,4.9314,4.9298,4.9305,4.9304,4.9303,4.9303,4.9276,4.9276,0,0,0,0,0,0,4.9386,4.9381,4.936,4.9358,4.9371,4.9356,4.9353,4.9349,4.9333,4.933,4.9341,4.934,4.9318,4.9315,4.9313,4.9303,4.9304,4.9303,4.9302,4.9276,4.9276,4.9276,0,0,0,0,0,0,4.9386,4.9384,4.9361,4.937,4.9367,4.9355,4.935,4.9348,4.9344,4.933,4.9328,4.9338,4.9317,4.9315,4.9304,4.9302,4.9302,4.9301,4.9276,4.9276,4.9276,4.9284,0,0,0,0,0,0,4.9387,4.9384,4.9382,4.937,4.9366,4.9353,4.935,4.9348,4.9342,4.9342,4.9328,4.9325,4.9317,4.9306,4.9303,4.9301,4.9301,4.9276,4.9276,4.9276,4.9284,4.9284,4.9285,0,0,0,0,0,4.9388,4.9384,4.9382,4.9379,4.9363,4.9353,4.9351,4.9343,4.9342,4.9339,4.9331,4.9326,4.9303,4.9305,4.9302,4.9299,4.9276,4.9276,4.9276,4.9284,4.9284,4.9285,0,0,0,0,0,0,4.9395,4.9382,4.938,4.9372,4.9364,4.9352,4.9348,4.9344,4.9335,4.9334,4.9324,4.9321,4.9311,4.9304,4.9306,4.9291,4.9289,4.9288,4.9296,4.9297,4.9297,4.9299,4.93,0,0,0,0,0,4.9396,4.939,4.9379,4.9373,4.9369,4.9359,4.9354,4.9349,4.934,4.9336,4.9327,4.9317,4.9308,4.9302,4.9292,4.9283,4.928,4.928,4.928,4.928,4.928,4.9274,4.9274,4.9275,4.9275,4.9275,0,0,4.9397,4.9389,4.9386,4.9374,4.9367,4.936,4.9356,4.9349,4.9343,4.9334,4.9325,4.9318,4.9306,4.9296,4.9291,4.929,4.9279,4.928,4.9281,4.928,4.9274,4.9274,4.9274,4.9275,4.9275,4.9275,0,0,4.9396,4.939,4.9384,4.9378,4.9368,4.9361,4.936,4.9349,4.9344,4.9334,4.9328,4.932,4.9304,4.9297,4.929,4.9287,4.9281,4.9284,4.9285,4.928,4.928,4.928,4.9278,4.9278,4.9283,4.9283,4.9283,0,4.9398,4.9388,4.9381,4.9375,4.937,4.9363,4.9357,4.935,4.9337,4.9333,4.9332,4.9313,4.9304,4.9293,4.9292,4.9287,4.9285,4.9285,4.9281,4.928,4.928,4.9279,4.9278,4.9284,4.9283,4.9283,4.9283,0,4.9392,4.9385,4.9382,4.9371,4.9365,4.9359,4.935,4.9345,4.934,4.9334,4.9324,4.9313,4.9302,4.9299,4.9294,4.9287,4.9286,4.9283,4.9281,4.9281,4.9279,4.9278,4.9284,4.9284,4.9284,4.9284,0,0,4.9394,4.938,4.9379,4.9374,4.9363,4.9357,4.935,4.934,4.9336,4.9327,4.9321,4.9308,4.9305,4.9298,4.9292,4.9288,4.9285,4.9285,4.9284,4.9285,4.9276,4.9279,4.9278,4.9282,4.9282,4.9281,4.9277,0,4.9391,4.9379,4.9373,4.9364,4.9357,4.9351,4.9345,4.9337,4.933,4.9323,4.9316,4.9307,4.9304,4.93,4.9295,4.9287,4.9283,4.9287,4.9275,4.9274,4.9278,4.9277,4.928,4.9276,4.9277,4.9276,4.9276,0,4.9386,4.9379,4.9369,4.9359,4.9356,4.9351,4.9342,4.9335,4.9326,4.9321,4.9314,4.9308,4.93,4.9298,4.9286,4.9289,4.9283,4.9278,4.9278,4.9276,4.9275,4.9275,4.9275,4.9274,4.9275,4.9275,4.9275,0,4.9388,4.9376,4.9369,4.9365,4.9353,4.9349,4.9344,4.9335,4.933,4.9321,4.9317,4.9307,4.9302,4.9294,4.9285,4.9285,4.9273,4.9271,4.9269,4.9269,4.9266,4.9267,4.9265,4.9263,4.9263,4.9263,4.9263,0,4.9385,4.938,4.937,4.9365,4.9359,4.9351,4.9345,4.9339,4.933,4.9324,4.9317,4.9311,4.93,4.9292,4.9285,4.9276,4.9273,4.9269,4.9267,4.927,4.927,4.9266,4.9266,4.9263,4.9263,4.9263,4.9263,0,4.9387,4.938,4.9372,4.9362,4.9359,4.9354,4.9345,4.934,4.9334,4.9326,4.9323,4.9313,4.9304,4.9294,4.9281,4.9276,4.9267,4.9265,4.9271,4.927,4.9268,4.9268,4.9263,4.9262,4.9261,4.9261,4.9261,0,4.9385,4.9381,4.9371,4.9367,4.9362,4.9355,4.935,4.9342,4.9337,4.9326,4.9322,4.9313,4.9305,4.929,4.928,4.927,4.9267,4.9266,4.9265,4.9268,4.9267,4.9267,4.9267,4.9266,4.9266,4.9266,4.9266,0,4.9383,4.9381,4.9374,4.9367,4.9361,4.9354,4.9347,4.9344,4.9334,4.9329,4.932,4.9314,4.9301,4.9291,4.928,4.9273,4.9268,4.9267,4.9266,4.9268,4.9272,4.9269,4.9271,4.9267,4.9267,4.9267,4.9267,4.9267,4.9383,4.9379,4.9372,4.9365,4.9359,4.9353,4.9348,4.9341,4.9334,4.9324,4.9319,4.931,4.9301,4.9286,4.9279,4.9271,4.927,4.9268,4.9267,4.9267,4.9268,4.9273,4.9269,4.9269,4.9269,4.9269,4.9269,0,4.9381,4.9376,4.937,4.9361,4.9355,4.9352,4.9344,4.9339,4.9332,4.9324,4.9317,4.9306,4.9297,4.9287,4.9277,4.9272,4.927,4.927,4.927,4.9268,4.927,4.9272,4.9272,4.9272,4.9272,4.9272,4.9272,4.9272,4.9379,4.9373,4.9369,4.9359,4.9353,4.9346,4.9341,4.9335,4.9329,4.9318,4.9311,4.9305,4.9296,4.9285,4.9276,4.9274,4.927,4.9271,4.9268,4.9269,4.9268,4.9268,4.927,4.927,4.927,4.9267,4.9267,4.9267]}]]